[[{"header":{"parameterUnit":"m.s-1","parameterCategory":1,"la1":30.2992,"la2":30.254,"lo1":-89.0895,"lo2":-89.0443,"dy":0.0025,"dx":0.0025,"nx":19,"ny":19,"refTime":"2026-05-15T21:00:00:Z","depth":0,"parameterNumber":2,"parameterNumberName":"U-component_of_WINDS"},"data":[0,0,0,-2.949,-2.9489,-2.9465,-2.9465,-2.9452,-2.9452,0,0,0,0,0,0,0,0,0,0,0,-2.9507,-2.9507,-2.949,-2.9489,-2.9465,-2.9465,-2.9452,-2.9452,0,0,0,0,0,0,0,0,0,0,0,-2.9507,-2.9507,-2.9508,-2.9489,-2.9465,-2.9465,-2.9452,-2.9464,0,0,0,0,0,0,0,0,0,0,-2.9484,-2.951,-2.9507,-2.9508,-2.9489,-2.9465,-2.9465,-2.9464,-2.9463,-2.947,0,-2.9479,0,-2.9466,-2.9452,-2.9452,0,0,0,-2.9481,-2.9511,-2.9495,-2.9508,-2.9489,-2.9465,-2.9474,-2.9463,-2.9462,-2.9469,-2.9479,-2.9478,-2.9465,-2.9452,-2.9452,-2.9521,-2.9521,0,0,-2.9483,-2.9508,-2.9496,-2.9495,-2.95,-2.9475,-2.9473,-2.9462,-2.9475,-2.9479,-2.9477,-2.9465,-2.9452,-2.9452,-2.952,-2.9521,0,0,0,-2.9492,-2.9509,-2.9493,-2.9496,-2.9491,-2.9474,-2.9473,-2.9475,-2.9468,-2.9477,-2.9465,-2.9452,-2.9452,-2.9519,-2.952,-2.9578,0,0,0,-2.9492,-2.9514,-2.9494,-2.951,-2.9491,-2.9482,-2.9486,-2.9469,-2.9466,-2.9465,-2.9452,-2.9452,-2.9518,-2.952,-2.9575,-2.96,0,0,0,-2.9505,-2.9516,-2.9516,-2.9511,-2.9502,-2.9482,-2.9474,-2.9467,-2.946,-2.9452,-2.9452,-2.9518,-2.9519,-2.9572,-2.9595,-2.9625,0,0,0,-2.9526,-2.9567,-2.9517,-2.956,-2.9502,-2.9519,-2.9474,-2.9485,-2.9485,-2.9452,-2.9518,-2.952,-2.9571,-2.9592,-2.9622,-2.9653,-2.9669,0,0,-2.9592,-2.9576,-2.9599,-2.9554,-2.9586,-2.952,-2.9561,-2.9537,-2.9513,-2.952,-2.9521,-2.9576,-2.9595,-2.9624,-2.9752,-2.9765,0,0,0,-2.9629,-2.9645,-2.9648,-2.965,-2.9635,-2.9623,-2.9591,-2.9582,-2.9587,-2.9522,-2.9595,-2.9605,-2.9622,-2.9635,-2.9646,-2.9658,-2.9528,-2.9528,-2.9528,-2.9756,-2.9725,-2.9761,-2.9728,-2.9731,-2.9699,-2.9698,-2.9681,-2.9648,-2.9666,-2.9667,-2.9748,-2.9765,-2.9773,-2.9786,-2.9683,-2.9683,-2.9683,-2.9683,-2.9849,-2.9867,-2.9825,-2.9844,-2.9811,-2.9827,-2.9799,-2.9776,-2.9786,-2.9745,-2.9758,-2.9713,-2.9788,-2.9798,-2.9687,-2.9687,-2.9686,-2.9686,-2.9685,-2.9927,-2.993,-2.9921,-2.9922,-2.9927,-2.9893,-2.9905,-2.9875,-2.9847,-2.986,-2.9857,-2.9856,-2.985,-2.9861,-2.9862,-2.9862,-2.9862,-2.9862,-2.9863,-3.0011,-2.9998,-3.0012,-3.0001,-3.0,-2.9994,-2.9965,-2.9963,-2.9952,-2.993,-2.9929,-2.9894,-2.9802,-2.9779,-2.9867,-2.9866,-2.9865,-2.9865,-2.9865,-3.0112,-3.0085,-3.0106,-3.0105,-3.009,-3.0098,-3.0061,-3.006,-3.0054,-3.0061,-3.0025,-2.9962,-2.9943,-2.9934,-2.9914,-3.0032,-3.0032,-3.0032,-3.0032,-3.0176,-3.0165,-3.018,-3.0181,-3.0178,-3.0148,-3.0173,-3.0153,-3.0127,-3.0121,-3.0101,-3.0073,-3.0066,-3.0051,-3.0039,-3.002,-3.0162,-3.0162,-3.0162,-3.0236,-3.0224,-3.025,-3.0225,-3.0213,-3.0203,-3.0226,-3.0229,-3.0194,-3.0167,-3.0116,-3.0111,-3.0065,-3.0053,-3.002,-3.0004,-2.9967,0,0]},{"header":{"parameterUnit":"m.s-1","parameterCategory":1,"la1":30.2992,"la2":30.254,"lo1":-89.0895,"lo2":-89.0443,"dy":0.0025,"dx":0.0025,"nx":19,"ny":19,"refTime":"2026-05-15T21:00:00:Z","depth":0,"parameterNumber":3,"parameterNumberName":"V-component_of_WINDS"},"data":[0,0,0,3.668,3.668,3.671,3.671,3.6739,3.6739,0,0,0,0,0,0,0,0,0,0,0,3.6666,3.6666,3.668,3.668,3.671,3.671,3.6739,3.6739,0,0,0,0,0,0,0,0,0,0,0,3.6666,3.6666,3.6666,3.668,3.671,3.671,3.6739,3.672,0,0,0,0,0,0,0,0,0,0,3.6692,3.6674,3.6666,3.6666,3.6681,3.671,3.671,3.6719,3.6721,3.6721,0,3.6721,0,3.673,3.674,3.674,0,0,0,3.6684,3.6672,3.6685,3.6666,3.6681,3.671,3.6698,3.672,3.6722,3.6724,3.6722,3.6723,3.6731,3.674,3.6741,3.6734,3.6734,0,0,3.6682,3.6668,3.6684,3.6686,3.6682,3.6697,3.6699,3.6721,3.6718,3.6722,3.6724,3.6731,3.6741,3.6741,3.6734,3.6734,0,0,0,3.6675,3.6666,3.6679,3.6685,3.6691,3.6697,3.67,3.6717,3.6722,3.6724,3.6732,3.6741,3.6741,3.6734,3.6734,3.671,0,0,0,3.6674,3.6662,3.6678,3.6669,3.6691,3.6704,3.6694,3.672,3.6723,3.6732,3.6741,3.6741,3.6735,3.6734,3.6712,3.6701,0,0,0,3.6665,3.6661,3.6664,3.6669,3.6681,3.6704,3.6711,3.6721,3.6728,3.674,3.6741,3.6735,3.6734,3.6713,3.6703,3.6696,0,0,0,3.6651,3.6641,3.6663,3.6655,3.6681,3.6689,3.6711,3.6718,3.6726,3.6741,3.6735,3.6734,3.6713,3.6704,3.6697,3.6688,3.6683,0,0,3.663,3.6638,3.6635,3.6655,3.6656,3.6686,3.6684,3.6704,3.6718,3.6728,3.6728,3.6711,3.6703,3.6697,3.6657,3.6653,0,0,0,3.6623,3.662,3.6624,3.6631,3.6647,3.666,3.6683,3.6691,3.67,3.672,3.6707,3.6703,3.6699,3.6696,3.6692,3.669,3.6732,3.6732,3.6732,3.6572,3.6592,3.6587,3.6611,3.6617,3.6642,3.6649,3.6664,3.6681,3.6677,3.668,3.6654,3.6649,3.6647,3.6645,3.6677,3.6676,3.6676,3.6676,3.6543,3.6543,3.6567,3.6572,3.6592,3.6596,3.6619,3.6631,3.6638,3.6653,3.6651,3.6667,3.6641,3.6641,3.6675,3.6675,3.6675,3.6675,3.6675,3.6513,3.6516,3.6526,3.654,3.6548,3.6572,3.6578,3.6596,3.6614,3.6612,3.6617,3.6618,3.6621,3.6613,3.6613,3.6613,3.6613,3.6613,3.6613,3.6477,3.6489,3.6492,3.651,3.6518,3.653,3.6555,3.6563,3.6577,3.659,3.659,3.6608,3.6635,3.6642,3.6611,3.6612,3.6612,3.6612,3.6612,3.6441,3.6453,3.6457,3.6465,3.6488,3.6495,3.6519,3.6534,3.6543,3.6546,3.6564,3.6581,3.659,3.6593,3.6599,3.656,3.656,3.656,3.656,3.6416,3.6423,3.6432,3.6444,3.6458,3.648,3.6485,3.6504,3.6526,3.6533,3.6541,3.6551,3.6553,3.6561,3.6564,3.657,3.6524,3.6524,3.6524,3.6396,3.6405,3.6406,3.6428,3.6447,3.6463,3.6469,3.6481,3.6508,3.6523,3.6539,3.6541,3.6556,3.656,3.6575,3.658,3.6591,0,0]}]]